Voltar ao catálogo

CZ-6A DEB

AtivoPO
NORAD 60902·DEBRIS·🇨🇳 China

Lançado Aug 6, 2024 de Taiyuan Satellite Launch Center

Loading…

Próximas Passagens (próximas 24 horas)

TLE

AtualizadoSource: Space-Track

Época: Sep 14, 2026, 10:45 UTC

1 60902U 24140LH  26257.44859240  .00001047  00000-0  21796-3 0  9996
2 60902  89.0274 262.5803 0113643 320.5714  38.7264 14.55299089110009

Acompanhe CZ-6A DEB em tempo real com AllMySat

Download on the App Store